Location: Leeds
(37.2390°N, 113.3580°W)
Time: 10:45:15
(UTC-06:00)

Daily predictions for brighter satellites

Satellite Brightness Start Highest point End
(mag) Time Altitude Azimuth Time Altitude Azimuth Time Altitude Azimuth
Spot 2 Rocket 3.5 21:08:23 10° SSE 21:13:28 82° ENE 21:18:37 10° NNW
Helios 1B rocket 3.4 21:11:32 10° NE 21:15:03 27° E 21:18:32 10° SSE
NOSS 3-2 (A) 3.9 21:09:40 10° SW 21:15:34 68° NW 21:22:03 10° NNE
Cosmos 1315 Rocket 3.3 21:14:44 10° SSW 21:18:43 67° W 21:22:48 10° N
USA 186 1.3 21:18:21 10° S 21:20:57 85° W 21:23:47 10° NNW
ISS -3.8 21:18:59 10° SW 21:22:14 87° NW 21:25:29 10° NE
Cosmos 1892 2.8 21:18:35 10° S 21:22:21 56° E 21:26:08 10° NNE
CZ-2D R/B 4.1 21:20:44 10° S 21:24:32 53° W 21:28:21 10° NNW
Tsikada Rocket 4.0 21:19:05 10° S 21:25:19 89° E 21:31:32 10° N
DELTA 2 R/B(2) 3.3 21:24:08 10° W 21:26:29 67° NNW 21:28:04 10° ENE
USA 215 4.5 21:24:00 10° E 21:29:37 31° NNE 21:35:15 10° NNW
Cosmos 1943 Rocket 3.0 21:27:56 10° SSE 21:32:40 29° ESE 21:37:23 10° NE
Tiangong 2 1.3 21:29:43 10° WNW 21:32:56 67° NNE 21:35:46 13° ESE
NOSS 3-2 (C) 4.0 21:30:27 10° SW 21:36:21 64° NW 21:42:50 10° NNE
Cosmos 2344 4.2 21:33:14 10° S 21:39:54 32° ESE 21:46:45 10° NE
Envisat 3.1 21:35:24 10° S 21:40:28 81° WSW 21:45:35 10° NNW
Cosmos 2263 4.5 21:36:58 10° S 21:42:26 46° ESE 21:47:55 10° NE
CZ-4B DEB 3.3 21:41:44 16° SE 21:43:38 34° ENE 21:46:20 10° N
Cosmos 1634 Rocket 4.1 21:38:34 10° N 21:44:48 59° E 21:51:00 10° SSE
Helios 1A 3.0 21:42:24 10° SSE 21:46:32 67° ENE 21:50:44 10° N
Molniya-1 2.7 21:48:32 10° SW 21:50:25 61° NW 21:52:01 10° NNE
CENTAUR R/B 2.5 21:44:45 10° SSW 21:50:26 55° ESE 21:56:52 10° NE
SPOT 5 4.4 21:47:25 14° ESE 21:50:38 24° ENE 21:54:47 10° NNE
COSMOS 2455 2.9 21:45:52 10° SSW 21:51:53 85° WNW 21:57:56 10° NNE
SAR-Lupe-4 4.0 21:51:25 18° SE 21:53:46 45° ENE 21:57:11 10° N
Cosmos 2369 Rocket 2.2 21:48:42 10° SSW 21:54:21 85° ESE 22:00:04 10° NNE
Resurs 01 Rocket 3.6 21:50:40 10° SSW 21:54:29 28° W 21:58:19 10° NW
Cosmos 1125 Rocket 3.7 21:49:56 10° S 21:54:58 49° ESE 22:00:00 10° NNE
Shenzhou-11 Module 2.1 21:52:56 10° WNW 21:55:58 62° SSW 21:57:31 25° SE
Cosmos 1606 3.6 21:53:54 10° NNE 21:57:16 30° ENE 21:58:52 22° ESE
Milstar 3 4.1 21:45:15 10° SW 21:57:17 40° S 22:03:20 16° ESE
Lacrosse 5 rocket 1.5 21:54:31 10° SW 21:58:03 62° NW 22:01:39 10° NE
Cosmos 1346 Rocket 3.3 21:56:49 10° NNW 22:00:44 61° W 22:04:41 10° S
YAOGAN 6 2.6 21:58:21 13° S 22:01:37 84° WSW 22:05:19 10° NNW
Cosmos 1939 Rocket 3.7 22:01:36 10° S 22:05:38 51° W 22:09:40 10° NNW
GPS 2-04 Rocket1 2.4 22:11:29 10° W 22:15:11 65° S 22:16:29 35° ESE
SAR-Lupe-1 4.0 22:13:28 28° SSE 22:15:13 75° ENE 22:18:48 10° N
Okean 1-7 3.0 22:12:31 10° N 22:16:57 81° E 22:19:40 23° S
Cosmos 2279 Rocket 4.0 22:12:19 10° N 22:18:32 63° E 22:22:39 22° SSE
ATLAS 5 CENTAUR R/B 3.0 22:13:18 10° NNW 22:19:04 44° NE 22:22:41 23° ESE
MetOp-B 4.2 22:17:02 24° SSE 22:20:16 63° ENE 22:25:34 10° N
Meteor 1-29 4.0 22:18:33 10° N 22:21:56 48° WNW 22:25:17 10° SSW
Meteor 1-27 Rocket 4.2 22:17:51 10° N 22:23:19 43° ENE 22:25:44 28° SE
Meteor 1-10 Rocket 4.3 22:18:08 10° N 22:24:06 77° E 22:27:57 23° SSE
Aureole 3 3.3 22:22:00 15° SSW 22:24:25 54° W 22:27:20 10° N
H-2A R/B 2.9 22:22:48 26° ESE 22:25:02 37° ENE 22:29:54 10° N
Cosmos 1408 2.7 22:26:49 19° SSW 22:29:21 74° W 22:33:05 10° N
Cosmos 158 Rocket 3.8 22:25:44 10° NNW 22:30:36 67° ENE 22:32:33 35° SE
Cosmos 1656 Rocket 4.0 22:29:16 30° SE 22:31:06 39° ESE 22:36:10 10° NE
ARGOS 3.2 22:29:08 29° SSE 22:31:50 66° ENE 22:37:09 10° N
Meteor 2-6 Rocket 4.3 22:26:41 10° N 22:32:40 83° E 22:36:17 25° SSE
Cosmos 2180 Rocket 4.5 22:29:37 10° N 22:36:02 72° E 22:39:33 28° SSE
Cosmos 1782 3.1 22:34:51 10° NNW 22:38:48 64° W 22:40:31 31° SSW
Cosmos 1733 Rocket 3.2 22:38:50 45° SE 22:39:35 51° E 22:43:47 10° NNE
Cosmos 1825 2.7 22:38:01 19° SSW 22:40:30 56° W 22:44:15 10° N
ERS-1 Rocket 3.4 22:43:32 23° S 22:46:32 57° W 22:51:30 10° NNW
SL-08 RB Rocket 3.7 22:45:10 45° SSE 22:46:34 74° ENE 22:51:15 10° N
Intercosmos 25 Rocket 4.2 22:43:44 10° N 22:50:27 51° ENE 22:51:30 43° ESE
Cosmos 2084 4.4 22:50:07 10° NW 22:53:38 34° WSW 22:54:26 30° SW
Cosmos 1862 3.5 22:55:13 44° SSW 22:56:20 69° W 23:00:18 10° N
Nimbus 7 Rocket 4.3 22:50:42 10° NNE 22:56:35 73° ESE 22:59:16 34° S
Landsat 7 4.2 22:56:21 44° E 22:56:57 47° ENE 23:01:31 10° N
Cosmos 1048 Rocket 4.2 22:53:04 10° NNW 22:58:21 68° WSW 23:00:11 40° S
ISS -0.5 22:57:17 10° WNW 22:59:07 14° NNW 23:00:56 10° N
Lacrosse 4 Rocket 1.4 22:57:12 10° NNW 23:01:42 82° ENE 23:02:08 71° SE
Cosmos 2227 Rocket 4.5 23:02:56 10° NNE 23:04:34 11° NE 23:06:11 10° ENE
Meteor 2-20 4.4 23:04:28 45° SSE 23:06:19 67° E 23:12:22 10° NNE
OAO 3 Copernicus 4.2 23:01:49 10° WSW 23:06:49 65° S 23:06:59 64° SSE
ATLAS CENTAUR R/B 3.6 23:12:21 14° NE 23:12:21 14° NE 23:12:54 10° NE
Tiangong 2 3.7 23:07:10 10° W 23:08:08 15° WSW 23:08:08 15° WSW
Cosmos 2219 4.1 23:06:04 10° N 23:11:18 35° ENE 23:12:18 33° E
Terra 2.2 23:12:01 46° ENE 23:12:06 47° ENE 23:16:40 10° N
USA 215 3.2 23:09:49 44° SE 23:12:08 84° SW 23:18:44 10° NW
Cosmos 2026 Rocket 4.4 23:12:38 40° E 23:13:00 40° E 23:18:44 10° NNE
CARTOSAT-1 4.1 23:13:27 45° ENE 23:13:27 45° ENE 23:17:15 10° N
Cosmos 1943 Rocket 3.7 23:11:11 10° SW 23:16:14 35° WNW 23:21:18 10° N
Cosmos 1340 4.1 23:14:37 10° NNW 23:18:01 31° W 23:18:27 30° WSW
DMSP B5D2-2 3.9 23:13:10 10° NNE 23:18:24 87° ESE 23:19:27 59° S
Cosmos 1674 Rocket 3.4 23:14:33 10° N 23:18:42 81° NNE 23:18:42 81° NNE
Cosmos 1378 Rocket 4.3 23:15:29 10° N 23:19:06 42° NE 23:19:06 42° NE
Cosmos 2251 Rocket 3.8 23:16:07 10° N 23:21:12 49° ENE 23:21:25 49° ENE
SPOT 1/Viking Rocket 3.8 23:22:10 50° SSW 23:23:15 63° WSW 23:28:26 10° NNW
SPOT 5 4.0 23:26:39 32° SW 23:28:23 42° W 23:33:24 10° NNW
H-2A R/B 3.1 23:31:06 34° NE 23:31:06 34° NE 23:33:58 10° N
GEOS 3 Rocket 3.7 23:35:54 62° ENE 23:36:13 63° NE 23:41:24 10° NNW
Cosmos 1092 Rocket 4.1 23:36:34 46° SSW 23:38:25 72° W 23:44:34 10° N
IGS 5A 4.1 23:42:12 53° NNW 23:42:12 53° NNW 23:45:26 10° NNW
Okean 3 4.1 23:37:10 10° N 23:40:24 53° NNW 23:40:24 53° NNW
CENTAUR R/B 4.5 23:36:18 10° W 23:41:30 28° NW 23:47:17 10° NNE
SME Rocket 4.3 23:41:40 57° ESE 23:42:57 68° ENE 23:51:59 10° N
Cosmos 1627 Rocket 4.3 23:46:11 70° S 23:46:58 87° E 23:53:20 10° N
Spot 4 4.5 23:48:22 48° NE 23:48:22 48° NE 23:52:20 10° N
CZ-4 R/B 4.4 23:47:34 10° NNE 23:50:59 48° NNE 23:50:59 48° NNE
Cosmos 1908 Rocket 4.3 23:52:48 50° NW 23:52:48 50° NW 23:56:41 10° N
